NIMBUS 2 DEB, 59976

Orbit data source: Space-Track

NIMBUS 2 DEB, 59976 is space debris in SSO originally from a launch on Sun, 15 May 1966 UTC launched from the Air Force Western Test Range (AFWTR). Debris objects in space refer to the collection of defunct objects orbiting the Earth. Examples of debris include non-operational satellites, rocket bodies, and fragments generated from explosions, collisions, or faulty payload assembly.

Loading next visibility...
Identifier
59976, 1966-040CF
Orbit
SSO
Country
Flag of USUS
Related business
Manufacturer
Unknown
Mission
Spacecraft
Bus & Motor
Unknown
Mass
Unknown
Launch date (UTC)
1966-05-15 (60 years ago)
Launch vehicle
Unknown
Launch site
Air Force Western Test Range (AFWTR)
Object type
Payload
Rocket body
Debris
Shape & HBR
Unknown shape, 0.1 m
Radar Cross Section
Small (<0.1 m²)

Expand to show TLE details & history
Last TLE update: 3 days ago

TLE from 3 days ago
0 NIMBUS 2 DEB
1 59976U 66040CF  26127.89753844  .00002397  00000-0  34417-2 0  9990
2 59976 100.6028 164.6626 0041140 233.5497 306.1400 13.56660414668515
Epoch: 2026-05-07T21:32Z
TLE epoch observation values (Epoch: 2026-05-07T21:32:27.321Z)
Latitude
0.57206°
Longitude
155.91822°
Altitude
1,032.605 km
Speed
7.344 km/s
True Right ascension
22h 59m 04s
True Declination
0° 34' 08"
Sunlit
Object was in daylight at epoch
Visualization orbit readout
Latitude
Unknown
Longitude
Unknown
Altitude
Unknown
Speed
Unknown
Apparent Right ascension
Unknown
Apparent Declination
Unknown
Sunlit
N/A
Visualization observer readout
Local Sidereal Time
06:57:38
Azimuth
Unknown
Elevation
Unknown
Doppler factor
Unknown
Orbital elements
Apogee altitude
1,075.734 km
Perigee altitude
1,014.655 km
Semi-major axis
7,423.332 km
Eccentricity
0.00411
Inclination
100.6028°
RAAN
164.6626°
Arg. of periapsis
233.5497°
True anomaly
305.75813°
Mean anomaly
306.14°
Eccentric anomaly
305.94918°
Mean motion
3.39348 °/min
Orbital period
106.09 mins
BSTAR
0.0034417
Loading maneuver chart data...
Computing Atmospheric mass density...
Loading historical data...
Loading historical data...
Loading historical data...
Loading historical data...
Loading historical data...
Loading historical data...
Loading historical data...

Documentation

Showing up to 5 results
|